Location: L�Ave Maria
(50.7161°N, 1.5911°E)
Time: 12:47:03
(UTC+00:00)

Aureole 2 Rocket - Pass Details

Date: 10 July 2020
Orbit: 304 x 429 km, 73.9° (Epoch: 07 August)

Event Time Altitude Azimuth Distance (km) Brightness Sun altitude
Rises 22:20:13 0° 331° (NNW) 2,153 7.8 -14.0°
Reaches altitude 10° 22:22:10 10° 325° (NW) 1,329 6.1 -14.1°
Maximum altitude 22:24:58 47° 250° (WSW) 497 2.6 -14.3°
Enters shadow 22:26:08 29° 193° (SSW) 720 3.0 -14.4°
